Zurück zum Katalog

COLIBRI-S

AktivAmateurfunkSSO
NORAD 61746·PAYLOAD·🇷🇺 Russia

Gestartet Nov 4, 2024 von Vostochny Cosmodrome

Loading…

Nächste Überflüge (nächste 24 Stunden)

TLE

AktuellSource: Space-Track

Epoche: Sep 14, 2026, 21:23 UTC

1 61746U 24199M   26257.89099573  .00026243  00000-0  44754-3 0  9995
2 61746  97.2801 132.7172 0006326 328.1926  31.8943 15.51310579151309

Verfolge COLIBRI-S in Echtzeit mit AllMySat

Download on the App Store